RRR4239 TXKF-TBPB

Flight info

Callsign RRR4239
Flight time 3h 3m
Altitude 32000
Route PIREX L462 DAWIN/N0383F320 L462 LAMKN UL462 ANU UA632 BGI
Aircraft A400/H-SDE2E3FGHIJ4J5M1RWXY/LB1D1

Departure

Time 2026-04-26 12:18
Airport L.F. Wade International Airport (TXKF)

Arrival

Time 2026-04-26 15:21
Airport Grantley Adams International Airport (TBPB)
Time Latitude Longitude Altitude Speed Heading
2026-04-26 12:18 32.10979 -64.59660 13230 ft 316 kts 177°
2026-04-26 12:18 32.08777 -64.59428 14118 ft 319 kts 177°
2026-04-26 12:18 32.06553 -64.59196 14996 ft 322 kts 177°
2026-04-26 12:19 32.04316 -64.58963 15854 ft 326 kts 177°
2026-04-26 12:19 32.02038 -64.58725 16713 ft 329 kts 177°
2026-04-26 12:19 31.99747 -64.58488 17545 ft 332 kts 177°
2026-04-26 12:19 31.97430 -64.58249 18367 ft 335 kts 177°
2026-04-26 12:20 31.95095 -64.58007 19173 ft 339 kts 177°
2026-04-26 12:20 31.92728 -64.57763 19930 ft 344 kts 177°
2026-04-26 12:20 31.90324 -64.57515 20668 ft 349 kts 177°
2026-04-26 12:20 31.87893 -64.57266 21385 ft 353 kts 177°
2026-04-26 12:21 31.85428 -64.57012 22086 ft 357 kts 177°
2026-04-26 12:21 31.82939 -64.56756 22776 ft 361 kts 177°
2026-04-26 12:21 31.80412 -64.56496 23413 ft 366 kts 177°
2026-04-26 12:21 31.77863 -64.56234 24004 ft 370 kts 177°
2026-04-26 12:22 31.75287 -64.55969 24566 ft 374 kts 177°
2026-04-26 12:22 31.72694 -64.55702 25103 ft 377 kts 177°
2026-04-26 12:22 31.70067 -64.55432 25604 ft 381 kts 177°
2026-04-26 12:22 31.67411 -64.55160 26083 ft 385 kts 177°
2026-04-26 12:23 31.64733 -64.54885 26560 ft 388 kts 177°
2026-04-26 12:23 31.62036 -64.54608 27006 ft 391 kts 177°
2026-04-26 12:23 31.59318 -64.54328 27426 ft 394 kts 177°
2026-04-26 12:23 31.56582 -64.54048 27824 ft 396 kts 177°
2026-04-26 12:24 31.53819 -64.53765 28213 ft 399 kts 177°
2026-04-26 12:24 31.51042 -64.53482 28570 ft 402 kts 177°
2026-04-26 12:24 31.48249 -64.53198 28917 ft 404 kts 177°
2026-04-26 12:25 31.42648 -64.52626 29562 ft 409 kts 176°
2026-04-26 12:25 31.39794 -64.52334 29873 ft 411 kts 176°
2026-04-26 12:25 31.36946 -64.52043 30206 ft 412 kts 176°
2026-04-26 12:25 31.34091 -64.51750 30594 ft 411 kts 176°
2026-04-26 12:26 31.31245 -64.51459 30993 ft 410 kts 177°
2026-04-26 12:26 31.28400 -64.51169 31392 ft 409 kts 177°
2026-04-26 12:26 31.25569 -64.50881 31791 ft 408 kts 177°
2026-04-26 12:26 31.23699 -64.50690 32011 ft 407 kts 177°
2026-04-26 12:27 31.20867 -64.50402 32131 ft 410 kts 177°
2026-04-26 12:27 31.18026 -64.50114 32131 ft 409 kts 177°
2026-04-26 12:27 31.12361 -64.49540 32124 ft 408 kts 177°
2026-04-26 12:28 31.06704 -64.48965 32132 ft 408 kts 177°
2026-04-26 12:28 31.01041 -64.48393 32127 ft 408 kts 177°
2026-04-26 12:29 30.95391 -64.47822 32124 ft 407 kts 177°
2026-04-26 12:30 30.86915 -64.46963 32131 ft 407 kts 177°
2026-04-26 12:30 30.81273 -64.46400 32109 ft 407 kts 177°
2026-04-26 12:31 30.72820 -64.45547 32116 ft 406 kts 177°
2026-04-26 12:31 30.67181 -64.44980 32116 ft 406 kts 177°
2026-04-26 12:32 30.61547 -64.44416 32110 ft 406 kts 177°
2026-04-26 12:33 30.53142 -64.43573 32112 ft 405 kts 177°
2026-04-26 12:33 30.47523 -64.43009 32123 ft 405 kts 177°
2026-04-26 12:34 30.41907 -64.42447 32122 ft 405 kts 178°
2026-04-26 12:34 30.36292 -64.41889 32115 ft 404 kts 178°
2026-04-26 12:35 30.30683 -64.41332 32124 ft 404 kts 178°
2026-04-26 12:35 30.25071 -64.40771 32123 ft 404 kts 177°
2026-04-26 12:36 30.19472 -64.40210 32119 ft 404 kts 178°
2026-04-26 12:36 30.13870 -64.39653 32120 ft 404 kts 177°
2026-04-26 12:37 30.08273 -64.39099 32116 ft 404 kts 178°
2026-04-26 12:37 30.02674 -64.38545 32115 ft 403 kts 178°
2026-04-26 12:38 29.97077 -64.37989 32113 ft 403 kts 178°
2026-04-26 12:38 29.91496 -64.37437 32111 ft 403 kts 178°
2026-04-26 12:39 29.85907 -64.36883 32108 ft 403 kts 178°
2026-04-26 12:39 29.80361 -64.36336 32108 ft 402 kts 178°
2026-04-26 12:40 29.74781 -64.35787 32115 ft 402 kts 178°
2026-04-26 12:40 29.69204 -64.35235 32105 ft 402 kts 178°
2026-04-26 12:41 29.63619 -64.34686 32101 ft 402 kts 178°
2026-04-26 12:41 29.58036 -64.34139 32115 ft 402 kts 178°
2026-04-26 12:42 29.52462 -64.33592 32109 ft 402 kts 178°
2026-04-26 12:42 29.46890 -64.33046 32119 ft 402 kts 178°
2026-04-26 12:43 29.41312 -64.32500 32103 ft 402 kts 178°
2026-04-26 12:43 29.35758 -64.31696 32102 ft 403 kts 173°
2026-04-26 12:44 29.30269 -64.30512 32103 ft 403 kts 172°
2026-04-26 12:44 29.24758 -64.29254 32106 ft 404 kts 172°
2026-04-26 12:45 29.19255 -64.27990 32122 ft 403 kts 173°
2026-04-26 12:45 29.13752 -64.26733 32112 ft 403 kts 173°
2026-04-26 12:46 29.08255 -64.25486 32099 ft 404 kts 172°
2026-04-26 12:46 29.02701 -64.24232 32100 ft 408 kts 172°
2026-04-26 12:47 28.97119 -64.22970 32100 ft 408 kts 173°
2026-04-26 12:47 28.91547 -64.21709 32102 ft 407 kts 173°
2026-04-26 12:48 28.85991 -64.20451 32099 ft 407 kts 173°
2026-04-26 12:48 28.80441 -64.19201 32100 ft 406 kts 173°
2026-04-26 12:49 28.74904 -64.17953 32101 ft 405 kts 173°
2026-04-26 12:49 28.69412 -64.16718 32092 ft 404 kts 174°
2026-04-26 12:50 28.63889 -64.15480 32092 ft 404 kts 174°
2026-04-26 12:50 28.58378 -64.14243 32092 ft 403 kts 174°
2026-04-26 12:51 28.52879 -64.13006 32091 ft 402 kts 174°
2026-04-26 12:51 28.47387 -64.11776 32091 ft 402 kts 174°
2026-04-26 12:52 28.41900 -64.10550 32091 ft 401 kts 174°
2026-04-26 12:52 28.36416 -64.09324 32091 ft 401 kts 175°
2026-04-26 12:53 28.30946 -64.08103 32091 ft 401 kts 175°
2026-04-26 12:53 28.25478 -64.06883 32091 ft 400 kts 175°
2026-04-26 12:54 28.20049 -64.05675 32091 ft 400 kts 175°
2026-04-26 12:54 28.14591 -64.04459 32092 ft 399 kts 175°
2026-04-26 12:55 28.09139 -64.03250 32091 ft 399 kts 175°
2026-04-26 12:55 28.03679 -64.02036 32092 ft 400 kts 175°
2026-04-26 12:56 27.98228 -64.00824 32091 ft 399 kts 175°
2026-04-26 12:56 27.92770 -63.99612 32092 ft 399 kts 175°
2026-04-26 12:57 27.87308 -63.98403 32091 ft 399 kts 175°
2026-04-26 12:57 27.81861 -63.97199 32091 ft 399 kts 175°
2026-04-26 12:58 27.73722 -63.95399 32083 ft 399 kts 175°
2026-04-26 12:58 27.68278 -63.94199 32082 ft 399 kts 175°
2026-04-26 12:59 27.62826 -63.92996 32083 ft 399 kts 175°
2026-04-26 12:59 27.57368 -63.91794 32082 ft 398 kts 176°
2026-04-26 13:00 27.51922 -63.90596 32082 ft 398 kts 176°
2026-04-26 13:00 27.46492 -63.89402 32082 ft 395 kts 177°
2026-04-26 13:01 27.41139 -63.88225 32082 ft 393 kts 178°
2026-04-26 13:01 27.35775 -63.87050 32082 ft 392 kts 178°
2026-04-26 13:02 27.30408 -63.85877 32082 ft 392 kts 178°
2026-04-26 13:02 27.25054 -63.84706 32083 ft 392 kts 178°
2026-04-26 13:03 27.19709 -63.83536 32083 ft 391 kts 178°
2026-04-26 13:03 27.14371 -63.82370 32073 ft 390 kts 178°
2026-04-26 13:04 27.09047 -63.81205 32072 ft 390 kts 178°
2026-04-26 13:04 27.03725 -63.80045 32073 ft 389 kts 179°
2026-04-26 13:05 26.98411 -63.78887 32073 ft 389 kts 179°
2026-04-26 13:05 26.93108 -63.77731 32073 ft 388 kts 179°
2026-04-26 13:06 26.87801 -63.76577 32072 ft 388 kts 179°
2026-04-26 13:06 26.82491 -63.75425 32072 ft 388 kts 179°
2026-04-26 13:07 26.77193 -63.74278 32073 ft 388 kts 179°
2026-04-26 13:07 26.71909 -63.73130 32073 ft 386 kts 179°
2026-04-26 13:08 26.66676 -63.71996 32073 ft 385 kts 180°
2026-04-26 13:08 26.61412 -63.70858 32067 ft 385 kts 180°
2026-04-26 13:09 26.56154 -63.69721 32063 ft 384 kts 180°
2026-04-26 13:09 26.51752 -63.68771 32064 ft 385 kts 180°
2026-04-26 13:10 26.46501 -63.67637 32063 ft 384 kts 180°
2026-04-26 13:10 26.41274 -63.66511 32063 ft 384 kts 180°
2026-04-26 13:11 26.36027 -63.65381 32064 ft 384 kts 180°
2026-04-26 13:11 26.30771 -63.64247 32064 ft 384 kts 180°
2026-04-26 13:12 26.25525 -63.63120 32063 ft 384 kts 180°
2026-04-26 13:12 26.20323 -63.62005 32064 ft 383 kts 180°
2026-04-26 13:13 26.15080 -63.60880 32063 ft 383 kts 180°
2026-04-26 13:13 26.09841 -63.59756 32064 ft 383 kts 180°
2026-04-26 13:14 26.04605 -63.58633 32063 ft 383 kts 180°
2026-04-26 13:14 25.99361 -63.57511 32052 ft 383 kts 180°
2026-04-26 13:15 25.94127 -63.56388 32055 ft 383 kts 180°
2026-04-26 13:15 25.88889 -63.55270 32062 ft 383 kts 180°
2026-04-26 13:16 25.83649 -63.54154 32064 ft 383 kts 180°
2026-04-26 13:16 25.78406 -63.53038 32064 ft 384 kts 180°
2026-04-26 13:17 25.70530 -63.51361 32055 ft 384 kts 180°
2026-04-26 13:18 25.62658 -63.49684 32056 ft 384 kts 180°
2026-04-26 13:19 25.54778 -63.48012 32052 ft 385 kts 180°
2026-04-26 13:19 25.49504 -63.46894 32053 ft 386 kts 180°
2026-04-26 13:20 25.44230 -63.45774 32054 ft 386 kts 180°
2026-04-26 13:20 25.38952 -63.44656 32055 ft 386 kts 180°
2026-04-26 13:21 25.33672 -63.43537 32055 ft 387 kts 180°
2026-04-26 13:21 25.28385 -63.42419 32055 ft 387 kts 180°
2026-04-26 13:22 25.23131 -63.41311 32055 ft 387 kts 180°
2026-04-26 13:22 25.17814 -63.40189 32053 ft 388 kts 180°
2026-04-26 13:23 25.12504 -63.39066 32055 ft 389 kts 180°
2026-04-26 13:23 25.07181 -63.37944 32051 ft 389 kts 180°
2026-04-26 13:24 25.01893 -63.36830 32044 ft 389 kts 180°
2026-04-26 13:24 24.96562 -63.35709 32052 ft 390 kts 179°
2026-04-26 13:25 24.91235 -63.34589 32045 ft 390 kts 180°
2026-04-26 13:25 24.85900 -63.33471 32054 ft 390 kts 180°
2026-04-26 13:26 24.80561 -63.32354 32045 ft 391 kts 179°
2026-04-26 13:26 24.75239 -63.31239 32045 ft 391 kts 179°
2026-04-26 13:27 24.69882 -63.30116 32044 ft 392 kts 179°
2026-04-26 13:27 24.64525 -63.28994 32045 ft 392 kts 179°
2026-04-26 13:28 24.59169 -63.27873 32045 ft 392 kts 179°
2026-04-26 13:28 24.53804 -63.26752 32045 ft 392 kts 179°
2026-04-26 13:29 24.48434 -63.25633 32045 ft 393 kts 179°
2026-04-26 13:29 24.43065 -63.24515 32044 ft 392 kts 179°
2026-04-26 13:30 24.37695 -63.23394 32045 ft 393 kts 179°
2026-04-26 13:30 24.32328 -63.22276 32045 ft 393 kts 179°
2026-04-26 13:31 24.26958 -63.21159 32044 ft 393 kts 179°
2026-04-26 13:31 24.21581 -63.20041 32045 ft 393 kts 179°
2026-04-26 13:32 24.16247 -63.18935 32036 ft 393 kts 179°
2026-04-26 13:32 24.10872 -63.17822 32036 ft 393 kts 179°
2026-04-26 13:33 24.05497 -63.16708 32036 ft 393 kts 179°
2026-04-26 13:33 24.00121 -63.15594 32036 ft 393 kts 179°
2026-04-26 13:34 23.94727 -63.14480 32036 ft 396 kts 179°
2026-04-26 13:34 23.89299 -63.13359 32036 ft 397 kts 179°
2026-04-26 13:35 23.83860 -63.12234 32036 ft 397 kts 179°
2026-04-26 13:35 23.78464 -63.11118 32036 ft 398 kts 179°
2026-04-26 13:36 23.73025 -63.09998 32036 ft 397 kts 179°
2026-04-26 13:36 23.67595 -63.08878 32036 ft 397 kts 179°
2026-04-26 13:37 23.62158 -63.07757 32036 ft 397 kts 179°
2026-04-26 13:37 23.56726 -63.06640 32035 ft 397 kts 179°
2026-04-26 13:38 23.51284 -63.05523 32036 ft 398 kts 179°
2026-04-26 13:38 23.45843 -63.04407 32036 ft 398 kts 179°
2026-04-26 13:39 23.40401 -63.03291 32036 ft 398 kts 179°
2026-04-26 13:39 23.34956 -63.02176 32037 ft 398 kts 178°
2026-04-26 13:40 23.29928 -63.01144 32033 ft 398 kts 178°
2026-04-26 13:40 23.24455 -63.00029 32034 ft 405 kts 178°
2026-04-26 13:41 23.18889 -62.98895 32036 ft 408 kts 178°
2026-04-26 13:41 23.13318 -62.97750 32036 ft 408 kts 178°
2026-04-26 13:42 23.07727 -62.96605 32036 ft 408 kts 178°
2026-04-26 13:42 23.02135 -62.95466 32036 ft 408 kts 178°
2026-04-26 13:43 22.96544 -62.94327 32036 ft 408 kts 178°
2026-04-26 13:43 22.90960 -62.93190 32036 ft 408 kts 178°
2026-04-26 13:44 22.85378 -62.92056 32036 ft 409 kts 178°
2026-04-26 13:44 22.79779 -62.90919 32036 ft 410 kts 178°
2026-04-26 13:45 22.74170 -62.89777 32036 ft 410 kts 178°
2026-04-26 13:45 22.68564 -62.88640 32026 ft 410 kts 178°
2026-04-26 13:46 22.62955 -62.87504 32028 ft 410 kts 178°
2026-04-26 13:46 22.57356 -62.86371 32026 ft 410 kts 178°
2026-04-26 13:47 22.51740 -62.85235 32026 ft 411 kts 178°
2026-04-26 13:47 22.46117 -62.84095 32026 ft 411 kts 178°
2026-04-26 13:48 22.40488 -62.82958 32027 ft 411 kts 178°
2026-04-26 13:48 22.34858 -62.81822 32027 ft 411 kts 178°
2026-04-26 13:49 22.29274 -62.80697 32027 ft 411 kts 178°
2026-04-26 13:49 22.23612 -62.79558 32027 ft 411 kts 178°
2026-04-26 13:50 22.17984 -62.78424 32026 ft 412 kts 178°
2026-04-26 13:50 22.12389 -62.77295 32027 ft 411 kts 178°
2026-04-26 13:51 22.06763 -62.76162 32027 ft 411 kts 178°
2026-04-26 13:51 22.01125 -62.75028 32022 ft 412 kts 178°
2026-04-26 13:52 21.95487 -62.73896 32017 ft 411 kts 178°
2026-04-26 13:52 21.89849 -62.72767 32017 ft 412 kts 178°
2026-04-26 13:53 21.84215 -62.71638 32017 ft 412 kts 178°
2026-04-26 13:53 21.78606 -62.70515 32017 ft 412 kts 178°
2026-04-26 13:54 21.72973 -62.69386 32018 ft 412 kts 178°
2026-04-26 13:54 21.68247 -62.68440 32018 ft 412 kts 178°
2026-04-26 13:55 21.60753 -62.66944 32018 ft 411 kts 178°
2026-04-26 13:56 21.51389 -62.65076 32018 ft 411 kts 178°
2026-04-26 13:56 21.45758 -62.63954 32017 ft 411 kts 178°
2026-04-26 13:57 21.40130 -62.62833 32017 ft 412 kts 178°
2026-04-26 13:57 21.34507 -62.61713 32017 ft 411 kts 178°
2026-04-26 13:58 21.28869 -62.60592 32017 ft 412 kts 178°
2026-04-26 13:58 21.23231 -62.59472 32017 ft 412 kts 178°
2026-04-26 13:59 21.17589 -62.58354 32017 ft 412 kts 178°
2026-04-26 13:59 21.11947 -62.57233 32017 ft 412 kts 178°
2026-04-26 14:00 21.00668 -62.54996 32017 ft 412 kts 178°
2026-04-26 14:01 20.95025 -62.53879 32017 ft 412 kts 178°
2026-04-26 14:01 20.89398 -62.52764 32017 ft 411 kts 177°
2026-04-26 14:02 20.83769 -62.51652 32017 ft 411 kts 177°
2026-04-26 14:02 20.78137 -62.50543 32017 ft 411 kts 177°
2026-04-26 14:03 20.72501 -62.49431 32018 ft 412 kts 177°
2026-04-26 14:03 20.66859 -62.48316 32017 ft 411 kts 177°
2026-04-26 14:04 20.61262 -62.47212 32017 ft 411 kts 177°
2026-04-26 14:04 20.55636 -62.46105 32017 ft 411 kts 177°
2026-04-26 14:05 20.50010 -62.44998 32017 ft 411 kts 177°
2026-04-26 14:05 20.44373 -62.43892 32017 ft 411 kts 177°
2026-04-26 14:06 20.38738 -62.42785 32017 ft 411 kts 177°
2026-04-26 14:06 20.33105 -62.41681 32017 ft 412 kts 177°
2026-04-26 14:07 20.27471 -62.40576 32017 ft 411 kts 176°
2026-04-26 14:07 20.21847 -62.39470 32017 ft 411 kts 176°
2026-04-26 14:08 20.16221 -62.38368 32018 ft 411 kts 176°
2026-04-26 14:08 20.10599 -62.37269 32017 ft 411 kts 176°
2026-04-26 14:09 20.04977 -62.36169 32017 ft 410 kts 176°
2026-04-26 14:09 19.99351 -62.35070 32017 ft 411 kts 176°
2026-04-26 14:10 19.93721 -62.33973 32017 ft 412 kts 176°
2026-04-26 14:10 19.88093 -62.32874 32017 ft 411 kts 176°
2026-04-26 14:11 19.79689 -62.31233 32017 ft 411 kts 176°
2026-04-26 14:11 19.74056 -62.30134 32018 ft 411 kts 176°
2026-04-26 14:12 19.68422 -62.29036 32017 ft 411 kts 176°
2026-04-26 14:12 19.62794 -62.27942 32017 ft 411 kts 176°
2026-04-26 14:13 19.54364 -62.26303 32017 ft 411 kts 176°
2026-04-26 14:14 19.48732 -62.25211 32017 ft 412 kts 176°
2026-04-26 14:14 19.43094 -62.24118 32017 ft 412 kts 176°
2026-04-26 14:15 19.37465 -62.23027 32017 ft 412 kts 176°
2026-04-26 14:15 19.31821 -62.21934 32017 ft 411 kts 176°
2026-04-26 14:16 19.26186 -62.20841 32018 ft 412 kts 176°
2026-04-26 14:16 19.20546 -62.19751 32017 ft 412 kts 176°
2026-04-26 14:17 19.14937 -62.18667 32018 ft 412 kts 176°
2026-04-26 14:17 19.09290 -62.17575 32017 ft 412 kts 176°
2026-04-26 14:18 19.03647 -62.16485 32017 ft 412 kts 176°
2026-04-26 14:18 18.98004 -62.15396 32017 ft 412 kts 176°
2026-04-26 14:19 18.92360 -62.14308 32017 ft 412 kts 176°
2026-04-26 14:19 18.86717 -62.13221 32017 ft 412 kts 176°
2026-04-26 14:20 18.81063 -62.12133 32017 ft 412 kts 176°
2026-04-26 14:20 18.75416 -62.11049 32017 ft 412 kts 176°
2026-04-26 14:21 18.69766 -62.09963 32018 ft 412 kts 176°
2026-04-26 14:21 18.64120 -62.08879 32017 ft 413 kts 176°
2026-04-26 14:22 18.58455 -62.07791 32017 ft 413 kts 176°
2026-04-26 14:22 18.52794 -62.06704 32017 ft 413 kts 176°
2026-04-26 14:23 18.47173 -62.05625 32017 ft 413 kts 175°
2026-04-26 14:23 18.41481 -62.04532 32018 ft 413 kts 176°
2026-04-26 14:24 18.35828 -62.03453 32017 ft 413 kts 175°
2026-04-26 14:24 18.30171 -62.02374 32017 ft 414 kts 175°
2026-04-26 14:25 18.24535 -62.01297 32017 ft 414 kts 175°
2026-04-26 14:25 18.18827 -62.00204 32017 ft 414 kts 175°
2026-04-26 14:26 18.13190 -61.99125 32017 ft 414 kts 175°
2026-04-26 14:26 18.07523 -61.98046 32017 ft 414 kts 175°
2026-04-26 14:27 18.01853 -61.96966 32017 ft 414 kts 175°
2026-04-26 14:27 17.96180 -61.95884 32017 ft 414 kts 175°
2026-04-26 14:28 17.90508 -61.94802 32017 ft 414 kts 175°
2026-04-26 14:28 17.84838 -61.93722 32017 ft 414 kts 175°
2026-04-26 14:29 17.79166 -61.92643 32017 ft 414 kts 175°
2026-04-26 14:29 17.73497 -61.91565 32018 ft 414 kts 175°
2026-04-26 14:30 17.67822 -61.90486 32017 ft 414 kts 175°
2026-04-26 14:30 17.62147 -61.89407 32017 ft 414 kts 175°
2026-04-26 14:31 17.56483 -61.88332 32018 ft 413 kts 175°
2026-04-26 14:31 17.50813 -61.87254 32022 ft 414 kts 175°
2026-04-26 14:32 17.45144 -61.86180 32027 ft 414 kts 175°
2026-04-26 14:32 17.39473 -61.85104 32032 ft 414 kts 175°
2026-04-26 14:33 17.33804 -61.84031 32036 ft 414 kts 175°
2026-04-26 14:33 17.28171 -61.82965 32042 ft 413 kts 175°
2026-04-26 14:34 17.22510 -61.81896 32049 ft 413 kts 175°
2026-04-26 14:34 17.16850 -61.80826 32045 ft 413 kts 175°
2026-04-26 14:35 17.11295 -61.79095 32044 ft 423 kts 160°
2026-04-26 14:35 17.06030 -61.76271 32043 ft 426 kts 156°
2026-04-26 14:36 17.01729 -61.73751 32048 ft 426 kts 155°
2026-04-26 14:36 16.96570 -61.70688 32046 ft 426 kts 155°
2026-04-26 14:37 16.91400 -61.67643 32052 ft 426 kts 156°
2026-04-26 14:37 16.86239 -61.64628 32056 ft 425 kts 156°
2026-04-26 14:38 16.81068 -61.61613 32051 ft 426 kts 156°
2026-04-26 14:38 16.75894 -61.58599 32047 ft 426 kts 156°
2026-04-26 14:39 16.70763 -61.55613 32044 ft 425 kts 156°
2026-04-26 14:39 16.65587 -61.52602 32053 ft 425 kts 155°
2026-04-26 14:40 16.60413 -61.49592 32055 ft 425 kts 155°
2026-04-26 14:40 16.55252 -61.46592 32044 ft 425 kts 155°
2026-04-26 14:41 16.50082 -61.43589 32045 ft 425 kts 155°
2026-04-26 14:41 16.44924 -61.40596 32043 ft 425 kts 156°
2026-04-26 14:42 16.39755 -61.37596 32044 ft 425 kts 155°
2026-04-26 14:42 16.34591 -61.34602 32044 ft 425 kts 155°
2026-04-26 14:43 16.29456 -61.31627 32045 ft 425 kts 155°
2026-04-26 14:43 16.24286 -61.28633 32055 ft 425 kts 155°
2026-04-26 14:44 16.19127 -61.25647 32055 ft 425 kts 155°
2026-04-26 14:44 16.13948 -61.22653 32056 ft 424 kts 155°
2026-04-26 14:45 16.08784 -61.19670 32055 ft 425 kts 155°
2026-04-26 14:45 16.03639 -61.16696 32055 ft 425 kts 155°
2026-04-26 14:46 15.98472 -61.13713 32054 ft 425 kts 155°
2026-04-26 14:46 15.93300 -61.10730 32063 ft 425 kts 155°
2026-04-26 14:47 15.88139 -61.07755 32063 ft 424 kts 155°
2026-04-26 14:47 15.82989 -61.04787 32064 ft 424 kts 155°
2026-04-26 14:48 15.77812 -61.01806 32063 ft 424 kts 155°
2026-04-26 14:48 15.72681 -60.98848 32066 ft 424 kts 155°
2026-04-26 14:49 15.67513 -60.95876 32073 ft 424 kts 155°
2026-04-26 14:49 15.62354 -60.92912 32073 ft 424 kts 155°
2026-04-26 14:50 15.57183 -60.89941 32073 ft 424 kts 155°
2026-04-26 14:50 15.52014 -60.86973 32066 ft 424 kts 155°
2026-04-26 14:51 15.46846 -60.84006 32055 ft 424 kts 155°
2026-04-26 14:51 15.41683 -60.81042 32055 ft 424 kts 155°
2026-04-26 14:52 15.36512 -60.78079 32055 ft 424 kts 155°
2026-04-26 14:52 15.31347 -60.75124 32054 ft 424 kts 155°
2026-04-26 14:53 15.26233 -60.72196 32052 ft 424 kts 155°
2026-04-26 14:53 15.21051 -60.69227 32047 ft 424 kts 155°
2026-04-26 14:54 15.15884 -60.66271 32044 ft 425 kts 155°
2026-04-26 14:54 15.10711 -60.63313 32044 ft 424 kts 155°
2026-04-26 14:55 15.05542 -60.60358 32019 ft 424 kts 155°
2026-04-26 14:55 15.00382 -60.57412 32017 ft 424 kts 155°
2026-04-26 14:56 14.95212 -60.54466 32018 ft 424 kts 155°
2026-04-26 14:56 14.90044 -60.51518 32018 ft 424 kts 154°
2026-04-26 14:57 14.84875 -60.48570 32017 ft 424 kts 154°
2026-04-26 14:57 14.79707 -60.45624 32017 ft 424 kts 154°
2026-04-26 14:58 14.74575 -60.42702 32017 ft 423 kts 154°
2026-04-26 14:58 14.69410 -60.39764 32017 ft 424 kts 154°
2026-04-26 14:59 14.64163 -60.37033 32018 ft 421 kts 159°
2026-04-26 14:59 14.58773 -60.34639 32017 ft 421 kts 160°
2026-04-26 15:00 14.53371 -60.32281 32030 ft 420 kts 160°
2026-04-26 15:00 14.50697 -60.31117 31824 ft 415 kts 160°
2026-04-26 15:00 14.48048 -60.29964 31581 ft 412 kts 160°
2026-04-26 15:00 14.45411 -60.28818 31328 ft 411 kts 160°
2026-04-26 15:01 14.42771 -60.27670 31087 ft 412 kts 160°
2026-04-26 15:01 14.40136 -60.26526 30676 ft 412 kts 160°
2026-04-26 15:01 14.37487 -60.25375 30025 ft 412 kts 160°
2026-04-26 15:01 14.34871 -60.24240 29330 ft 412 kts 160°
2026-04-26 15:02 14.32244 -60.23100 28721 ft 407 kts 160°
2026-04-26 15:02 14.29642 -60.21969 28277 ft 404 kts 159°
2026-04-26 15:02 14.27060 -60.20849 27788 ft 400 kts 159°
2026-04-26 15:02 14.24506 -60.19742 27302 ft 397 kts 159°
2026-04-26 15:03 14.21965 -60.18640 26819 ft 393 kts 159°
2026-04-26 15:03 14.19460 -60.17554 26344 ft 389 kts 159°
2026-04-26 15:03 14.16977 -60.16478 25866 ft 385 kts 159°
2026-04-26 15:03 14.14512 -60.15410 25391 ft 382 kts 159°
2026-04-26 15:04 14.12069 -60.14353 24923 ft 378 kts 159°
2026-04-26 15:04 14.09653 -60.13307 24455 ft 375 kts 159°
2026-04-26 15:04 14.07259 -60.12269 23992 ft 372 kts 159°
2026-04-26 15:04 14.04887 -60.11244 23518 ft 369 kts 159°
2026-04-26 15:05 14.02534 -60.10226 23070 ft 366 kts 159°
2026-04-26 15:05 14.00982 -60.09553 22780 ft 364 kts 159°
2026-04-26 15:05 13.97871 -60.08208 22160 ft 361 kts 159°
2026-04-26 15:05 13.95563 -60.07210 21701 ft 359 kts 159°
2026-04-26 15:06 13.93271 -60.06221 21246 ft 356 kts 158°
2026-04-26 15:06 13.90991 -60.05235 20789 ft 354 kts 158°
2026-04-26 15:06 13.88728 -60.04257 20334 ft 352 kts 158°
2026-04-26 15:06 13.86481 -60.03285 19891 ft 349 kts 158°
2026-04-26 15:07 13.82025 -60.01359 18982 ft 345 kts 158°
2026-04-26 15:07 13.79848 -60.00419 18536 ft 343 kts 158°
2026-04-26 15:07 13.77651 -59.99471 18089 ft 341 kts 158°
2026-04-26 15:08 13.75472 -59.98531 17644 ft 339 kts 158°
2026-04-26 15:08 13.73300 -59.97594 17197 ft 337 kts 158°
2026-04-26 15:08 13.71147 -59.96665 16755 ft 335 kts 158°
2026-04-26 15:08 13.69005 -59.95740 16314 ft 332 kts 158°
2026-04-26 15:09 13.66869 -59.94819 15872 ft 330 kts 158°
2026-04-26 15:09 13.64755 -59.93907 15435 ft 328 kts 158°
2026-04-26 15:09 13.62657 -59.93003 15005 ft 326 kts 158°
2026-04-26 15:09 13.60570 -59.92105 14562 ft 323 kts 158°
2026-04-26 15:10 13.58504 -59.91215 14127 ft 321 kts 158°
2026-04-26 15:10 13.57140 -59.90627 13844 ft 320 kts 158°
2026-04-26 15:10 13.54427 -59.89457 13269 ft 317 kts 158°
2026-04-26 15:10 13.52397 -59.88583 12841 ft 315 kts 157°
2026-04-26 15:11 13.50384 -59.87715 12412 ft 314 kts 157°
2026-04-26 15:11 13.48375 -59.86850 11983 ft 311 kts 157°
2026-04-26 15:11 13.46381 -59.85992 11561 ft 309 kts 157°
2026-04-26 15:11 13.44401 -59.85140 11130 ft 307 kts 157°
2026-04-26 15:12 13.42435 -59.84294 10699 ft 306 kts 157°
2026-04-26 15:12 13.40478 -59.83452 10273 ft 305 kts 156°
2026-04-26 15:12 13.38538 -59.82616 9961 ft 298 kts 156°
2026-04-26 15:12 13.36662 -59.81810 9731 ft 292 kts 156°
2026-04-26 15:13 13.34787 -59.81006 9289 ft 290 kts 156°
2026-04-26 15:13 13.32956 -59.80219 8898 ft 288 kts 155°
2026-04-26 15:13 13.31090 -59.79415 8503 ft 286 kts 155°
2026-04-26 15:13 13.29278 -59.78639 8118 ft 285 kts 156°
2026-04-26 15:14 13.27460 -59.77859 7730 ft 282 kts 155°
2026-04-26 15:14 13.25654 -59.77083 7342 ft 280 kts 155°
2026-04-26 15:14 13.23869 -59.76313 6967 ft 277 kts 155°
2026-04-26 15:14 13.22094 -59.75550 6567 ft 276 kts 155°
2026-04-26 15:15 13.20330 -59.74794 6177 ft 274 kts 155°
2026-04-26 15:15 13.18582 -59.74043 5786 ft 270 kts 155°
2026-04-26 15:15 13.16857 -59.73302 5394 ft 268 kts 155°
2026-04-26 15:15 13.15140 -59.72564 5027 ft 266 kts 155°
2026-04-26 15:16 13.13442 -59.71836 4669 ft 262 kts 155°
2026-04-26 15:16 13.11730 -59.71232 4358 ft 256 kts 161°
2026-04-26 15:16 13.10035 -59.70768 4077 ft 249 kts 162°
2026-04-26 15:16 13.08376 -59.70328 3773 ft 243 kts 159°
2026-04-26 15:17 13.07050 -59.69354 3443 ft 234 kts 128°
2026-04-26 15:17 13.06386 -59.68490 3224 ft 232 kts 127°
2026-04-26 15:17 13.05065 -59.66788 2906 ft 226 kts 127°
2026-04-26 15:17 13.04152 -59.65528 2716 ft 216 kts 117°
2026-04-26 15:18 13.03860 -59.64086 2501 ft 202 kts 88°
2026-04-26 15:18 13.04105 -59.62713 2169 ft 194 kts 76°
2026-04-26 15:18 13.04473 -59.61407 1849 ft 187 kts 75°
2026-04-26 15:18 13.04832 -59.60160 1593 ft 179 kts 75°
2026-04-26 15:19 13.05161 -59.58988 1419 ft 165 kts 76°
2026-04-26 15:19 13.05413 -59.57888 1251 ft 153 kts 78°
2026-04-26 15:19 13.05638 -59.56843 1112 ft 149 kts 78°
2026-04-26 15:19 13.05863 -59.55807 1007 ft 148 kts 77°
2026-04-26 15:20 13.06118 -59.54783 883 ft 147 kts 77°
2026-04-26 15:20 13.06355 -59.53759 753 ft 147 kts 77°
2026-04-26 15:20 13.06606 -59.52741 581 ft 146 kts 77°
2026-04-26 15:20 13.06848 -59.51728 396 ft 146 kts 76°
2026-04-26 15:21 13.07095 -59.50720 226 ft 145 kts 77°
2026-04-26 15:21 13.07307 -59.49848 190 ft 99 kts 75°
2026-04-26 15:21 13.07443 -59.49291 189 ft 65 kts 76°
2026-04-26 15:21 13.07506 -59.49045 191 ft 38 kts 71°
2026-04-26 15:22 13.07645 -59.48875 194 ft 28 kts 45°
2026-04-26 15:22 13.07767 -59.48742 192 ft 23 kts 57°
2026-04-26 15:22 13.07810 -59.48592 199 ft 21 kts 76°
2026-04-26 15:22 13.07853 -59.48415 196 ft 18 kts 76°
2026-04-26 15:23 13.07882 -59.48294 186 ft 17 kts 76°
2026-04-26 15:23 13.07902 -59.48216 186 ft 16 kts 76°
2026-04-26 15:23 13.07929 -59.48106 194 ft 15 kts 76°
2026-04-26 15:23 13.07984 -59.48081 191 ft 10 kts 343°
2026-04-26 15:24 13.08038 -59.48095 187 ft 0 kts 345°
2026-04-26 15:24 13.08041 -59.48096 187 ft 2 kts 346°
2026-04-26 15:24 13.08047 -59.48098 193 ft 0 kts 346°